Theta_e
280 279 279 279 278 278 278 277 277 277 277 276 276 276 276 276 276 276 276 276 276 276 276 277 277 277 277 277 277 277 277 277 277 277 277 277 277 277 277 277 277 277 277 277 276 276 276 276 276 276 276 276 276 276 276 276 276 276 276 276 276 276 276 275 275 275 276 276 276 277 277 278 278 278 279 279 279 279 280 280 280 280 281 281 282
280 279 279 279 278 278 278 277 277 277 276 276 276 276 276 276 276 276 276 276 276 276 276 276 276 276 276 276 276 277 277 277 277 277 277 277 277 277 277 277 277 277 276 276 276 276 275 275 275 275 275 275 275 275 275 275 275 275 275 275 275 275 276 275 275 274 275 275 276 276 276 277 277 278 278 278 279 278 278 279 279 279 280 280 281
280 279 279 279 278 278 278 277 277 277 276 276 276 276 276 276 276 276 276 276 276 276 276 276 276 276 276 276 276 276 276 276 276 276 276 276 276 276 276 276 276 276 276 276 275 275 275 275 275 275 275 275 275 275 275 275 275 275 275 275 275 275 275 275 274 274 274 275 275 275 276 276 276 277 277 277 278 278 277 278 278 278 279 279 279
279 279 279 279 278 278 278 278 277 277 276 276 276 276 276 276 276 276 276 275 275 275 275 275 275 275 276 276 276 276 276 276 276 276 276 276 276 276 276 276 276 275 275 275 275 275 275 275 275 274 274 275 275 275 274 274 274 274 274 274 275 275 275 275 275 274 273 274 274 274 275 274 275 276 276 276 277 277 277 277 277 277 278 278 278
279 279 279 278 278 278 278 278 277 277 276 276 276 275 275 275 275 275 275 275 275 275 275 275 275 275 275 275 275 275 275 275 275 275 275 275 275 275 275 275 275 275 275 275 275 274 274 274 274 274 274 274 274 274 274 274 274 274 274 274 274 274 274 274 274 274 273 273 273 274 274 274 274 275 275 275 276 276 276 277 277 277 277 277 278
279 279 279 278 278 278 278 278 277 277 276 276 276 275 275 275 275 275 275 275 275 275 275 275 275 275 275 275 275 275 275 275 275 275 275 275 275 275 275 275 275 275 275 274 274 274 274 274 274 274 274 274 273 273 273 274 274 274 274 274 273 273 273 273 273 272 272 272 273 273 273 274 274 275 275 274 274 275 275 276 276 277 277 277 277
279 279 279 278 278 278 278 278 277 277 276 276 275 275 275 275 275 275 275 275 275 275 275 275 275 275 274 274 274 274 274 274 274 274 274 274 274 274 274 274 274 274 274 274 274 274 274 274 274 273 273 273 273 273 273 273 273 272 272 272 272 272 272 272 272 272 272 272 273 273 274 274 274 274 274 274 274 274 275 275 275 276 276 277 277
279 279 278 278 278 278 278 277 277 277 276 276 275 275 275 274 275 275 274 274 274 274 274 274 274 274 274 274 274 274 274 274 274 274 274 274 274 274 274 274 274 274 274 274 274 274 274 273 273 273 273 272 272 272 272 271 271 271 271 271 271 271 271 271 272 272 273 273 273 273 274 273 273 273 273 273 273 274 274 274 274 275 276 276 276
279 279 278 278 278 278 278 277 277 276 276 275 275 275 274 274 274 274 274 274 274 274 274 274 274 274 274 274 274 274 274 274 274 273 273 273 273 273 273 273 273 273 274 274 274 274 273 273 273 273 272 272 272 271 271 271 271 271 270 271 271 271 271 272 272 273 273 273 273 273 273 273 273 273 273 273 273 273 273 274 274 274 275 275 275
279 279 279 278 278 278 277 277 277 276 276 275 275 274 274 274 274 274 274 274 274 274 274 274 274 274 274 274 274 273 273 273 273 273 273 272 272 272 273 273 273 273 273 273 273 273 273 273 273 272 272 272 272 272 271 271 271 271 270 270 271 272 272 272 272 272 272 273 273 273 272 272 272 273 273 273 273 273 273 274 274 274 275 275 275
279 279 278 278 278 278 277 277 277 276 276 275 275 274 274 274 274 274 274 274 274 274 274 274 274 273 273 273 273 273 273 273 273 273 272 272 271 271 272 272 273 273 273 272 272 272 272 272 272 272 272 272 272 271 271 271 271 271 270 270 271 271 271 271 272 272 272 272 272 272 272 272 273 273 273 273 273 273 274 274 274 274 274 275 275
279 279 278 278 278 277 277 277 277 276 276 275 275 274 274 274 274 274 274 273 273 273 273 273 273 273 273 273 273 273 273 272 272 272 272 272 271 271 271 272 272 272 272 272 272 272 272 272 272 272 272 271 271 271 271 271 271 270 270 269 270 270 270 271 272 272 272 272 272 272 272 273 273 273 273 273 273 273 273 273 274 274 274 274 274
279 278 278 278 277 277 277 277 276 276 275 275 274 274 274 273 273 273 273 273 273 273 273 273 273 273 273 273 273 273 272 272 272 272 272 272 271 271 271 272 272 271 271 271 271 271 271 271 271 271 271 271 271 271 271 270 270 269 269 269 269 270 270 271 271 271 271 271 271 271 272 272 272 272 272 272 272 272 272 273 273 273 273 273 273
278 278 278 278 277 277 277 277 276 276 275 275 274 274 273 273 273 273 273 273 273 273 273 273 273 273 273 272 272 272 272 272 272 272 271 271 271 271 271 272 271 271 271 271 271 271 271 271 271 271 271 270 270 270 269 269 269 269 269 269 270 270 270 270 270 269 269 269 270 270 270 270 271 271 271 271 271 272 272 272 272 272 273 273 273
278 278 277 277 277 277 277 276 276 275 275 274 274 273 273 273 273 273 273 273 273 272 272 272 272 272 272 272 272 272 272 272 271 271 271 271 271 270 271 271 271 271 271 271 270 270 270 270 270 270 269 269 269 268 269 269 269 269 269 269 270 270 269 269 268 268 268 268 269 269 269 270 270 270 270 270 270 271 271 271 271 271 272 272 272
278 278 277 277 277 277 276 276 276 275 274 274 274 273 273 273 273 273 272 272 272 272 272 272 272 272 272 272 272 272 272 271 271 271 271 270 270 270 270 271 271 271 270 270 270 270 270 270 270 269 268 268 267 268 269 269 269 269 269 270 269 269 269 268 268 268 268 268 268 269 269 269 269 269 269 269 269 270 270 270 270 271 271 271 271
277 277 277 277 277 276 276 276 275 274 274 274 273 273 273 273 272 272 272 272 272 272 272 272 272 272 271 271 271 271 271 271 271 271 270 270 270 269 270 270 270 270 270 270 270 270 270 269 269 268 267 267 267 268 269 269 269 269 269 269 268 268 268 269 268 268 267 267 267 268 268 268 268 268 268 268 269 269 269 270 270 270 270 270 270
277 277 277 277 276 276 276 275 274 274 274 273 273 273 273 272 272 272 272 272 272 271 271 271 271 271 271 271 271 271 271 271 271 270 270 270 269 269 269 269 269 269 269 269 269 269 269 269 268 267 267 267 268 268 269 269 269 269 269 268 267 267 268 268 268 267 267 267 268 268 268 268 268 268 268 268 268 268 268 268 269 269 269 270 270
277 277 277 276 276 275 275 274 274 274 273 273 273 273 272 272 272 272 272 271 271 271 271 271 271 271 271 271 271 271 271 271 270 270 270 269 269 268 268 268 269 269 269 268 268 268 267 267 267 267 267 267 268 268 268 268 269 269 268 268 267 267 267 267 267 266 266 267 268 268 268 268 268 268 268 268 268 268 267 267 268 269 269 269 270
277 276 276 276 275 275 274 274 274 273 273 273 273 272 272 272 272 271 271 271 271 271 271 271 271 271 271 270 270 270 270 270 270 270 269 269 268 268 268 268 268 268 268 267 267 266 266 265 266 266 266 266 267 267 267 268 269 268 268 267 267 267 267 266 266 266 266 267 267 267 268 268 268 268 268 268 268 267 267 267 267 268 268 268 269
276 276 275 275 275 274 274 274 273 273 273 273 272 272 272 272 271 271 271 271 271 271 271 271 271 271 270 270 270 270 270 270 270 269 269 269 268 268 267 267 267 267 267 266 265 265 265 265 265 266 266 266 266 266 267 269 269 268 268 267 267 266 266 266 266 266 266 266 266 267 267 267 268 268 267 267 267 267 267 266 267 267 267 267 267
275 275 275 274 274 274 274 273 273 273 273 272 272 272 272 271 271 271 271 270 270 270 270 270 270 270 270 270 270 270 269 269 269 269 269 268 268 267 267 267 267 266 265 265 265 265 265 265 265 265 266 266 266 267 268 268 268 268 267 266 266 265 265 265 265 265 265 266 266 266 266 267 267 267 267 267 267 266 266 266 266 266 266 267 267
275 274 274 274 274 274 273 273 273 272 272 272 272 272 271 271 271 271 270 270 270 270 270 270 270 270 270 270 270 269 269 269 269 269 269 268 268 267 267 266 266 265 265 264 264 264 265 265 265 265 265 266 267 267 268 268 267 266 266 265 265 265 264 265 265 265 265 265 266 266 266 266 266 266 266 266 266 265 266 266 266 266 267 267 267
274 274 274 274 274 273 273 273 272 272 272 272 272 271 271 271 271 270 270 270 270 270 270 270 269 269 270 270 269 269 269 268 268 268 268 268 267 267 266 266 266 265 264 264 264 265 265 265 265 265 266 266 266 266 266 266 265 265 264 264 264 264 264 264 265 265 265 265 265 265 265 265 265 265 265 265 265 265 265 266 266 266 267 267 267
274 274 274 274 273 273 273 272 272 272 272 272 272 271 271 271 270 270 270 269 269 270 269 269 269 269 269 269 269 269 268 268 268 268 268 267 267 267 266 266 265 265 265 265 265 265 265 264 264 265 265 265 265 265 265 265 264 264 264 264 264 264 264 264 264 264 264 264 264 264 264 264 264 264 264 264 264 264 265 265 266 266 266 267 267
274 274 273 273 273 273 273 272 272 272 272 272 271 271 271 271 270 270 270 269 269 269 269 269 269 269 269 269 269 268 268 268 268 268 267 267 267 266 266 265 265 265 264 264 265 265 264 264 264 264 264 264 264 264 264 264 264 264 264 264 264 263 263 263 263 263 263 263 263 263 264 264 264 264 263 264 264 264 264 265 265 266 266 266 267
274 274 273 273 273 273 272 272 272 272 271 271 271 271 271 271 270 270 270 269 269 269 269 269 269 269 268 268 268 268 267 267 267 267 267 266 266 265 265 265 264 264 263 264 265 264 263 263 263 263 263 264 264 264 264 264 263 263 263 263 263 263 263 263 263 263 263 263 263 263 263 263 263 263 263 263 264 264 264 264 264 265 265 265 265
274 274 273 273 273 273 272 272 272 272 271 271 271 271 271 270 270 270 269 269 268 268 268 268 268 268 268 268 268 267 267 267 267 266 266 266 266 265 264 264 263 263 262 263 264 264 263 263 263 263 264 264 264 263 263 263 263 263 263 263 263 263 263 262 262 262 262 262 262 263 263 263 263 263 263 263 263 264 264 264 264 264 264 263 263
274 274 273 273 273 273 272 272 272 272 271 271 271 271 271 270 270 270 269 269 268 268 268 268 268 268 267 267 267 267 267 267 266 266 266 265 265 264 264 263 263 263 263 263 264 264 263 263 263 264 264 263 263 263 263 263 263 263 263 263 262 262 262 262 262 262 262 262 262 262 262 262 262 263 263 263 263 263 263 263 263 263 263 262 261
274 273 273 273 273 273 272 272 272 271 271 271 271 271 270 270 270 269 269 269 268 268 268 268 268 267 267 267 267 266 266 266 266 266 265 264 263 264 264 263 263 263 263 264 264 263 263 263 263 263 263 263 263 263 263 263 263 263 263 262 262 262 262 262 262 262 262 262 262 262 262 262 262 262 262 262 263 263 263 263 263 262 262 261 260
274 273 273 273 273 273 272 272 272 271 271 271 270 270 270 270 269 269 269 268 268 268 267 267 267 267 267 267 267 266 266 266 265 265 264 263 263 264 263 263 263 263 263 263 263 263 263 263 263 263 263 262 262 262 262 262 262 262 262 262 262 262 261 262 262 262 262 262 261 261 262 262 262 262 262 262 263 263 263 263 263 262 260 259 259
274 273 273 273 273 272 272 272 271 271 271 271 270 270 270 269 269 269 269 268 268 267 267 267 267 266 266 266 265 266 266 265 265 264 263 263 263 263 263 262 263 263 263 263 263 263 263 263 262 262 262 262 262 262 262 262 262 261 261 261 261 261 261 261 261 261 261 261 261 261 261 261 261 262 262 262 262 262 263 263 262 261 259 259 259
273 273 273 273 272 272 272 271 271 271 271 270 270 270 269 269 269 269 268 268 268 267 267 267 267 266 266 265 265 265 264 264 264 263 263 263 263 263 263 262 262 262 262 263 263 262 262 262 262 262 262 262 262 262 261 261 261 261 260 260 260 261 261 261 261 261 261 261 261 261 261 261 261 261 262 262 262 262 262 262 261 259 259 259 259
273 273 273 272 272 272 272 271 271 271 271 270 270 270 269 269 269 268 268 268 267 267 268 268 267 266 266 265 265 265 264 264 263 263 263 263 263 263 262 262 261 262 262 262 262 262 262 261 262 262 261 262 262 261 261 261 261 260 260 260 260 260 260 261 261 261 261 261 261 261 261 261 261 261 261 262 262 262 262 261 260 259 258 258 258
273 273 272 272 272 271 271 271 271 271 270 270 270 269 269 269 268 268 267 267 267 267 268 268 267 267 266 266 265 265 264 264 264 264 264 263 263 262 262 261 261 262 262 261 261 261 261 261 261 261 261 261 261 261 261 260 260 260 260 259 260 260 260 260 261 261 261 261 261 261 261 261 261 261 261 261 262 261 261 260 259 258 258 258 258
273 272 272 272 271 271 271 271 271 270 270 270 269 269 268 268 268 267 267 267 267 267 267 267 267 266 266 266 265 265 264 264 264 264 263 263 263 262 262 261 262 262 261 261 261 261 261 261 261 261 261 261 261 261 260 260 260 260 259 259 259 259 260 260 260 260 260 261 261 261 261 261 261 261 261 261 261 261 260 260 259 259 258 258 258
273 273 272 272 271 271 271 270 270 270 270 269 269 269 268 268 268 267 267 267 267 267 267 267 266 266 266 266 265 264 264 263 263 263 263 263 263 262 262 262 262 261 261 261 261 261 261 261 261 261 261 261 261 261 260 260 260 259 259 259 259 259 259 260 260 260 260 260 261 261 261 261 261 261 261 261 261 261 260 260 259 259 259 259 259
273 273 272 272 272 271 271 270 270 270 269 269 269 268 268 268 267 267 267 267 267 266 266 266 266 266 266 265 265 264 263 263 263 263 263 263 263 262 262 262 261 261 261 261 261 261 261 261 261 261 261 261 260 260 260 260 259 259 259 259 259 259 259 259 259 260 260 260 260 261 261 261 261 261 261 261 261 261 260 260 259 259 259 260 259
273 272 272 272 271 271 271 270 270 269 269 269 268 268 268 267 267 267 267 267 266 266 266 266 266 266 266 265 264 264 263 263 263 263 263 262 262 262 262 262 261 261 261 261 261 261 261 261 261 261 261 260 260 260 260 259 259 259 258 258 258 259 259 259 259 260 260 260 260 260 260 261 261 261 261 261 261 260 260 260 260 259 259 259 259
272 272 272 271 271 271 270 270 270 269 269 269 268 268 267 267 267 267 266 266 266 266 265 265 265 265 265 264 264 263 263 263 263 263 262 262 262 262 262 261 261 261 261 261 261 261 261 261 261 260 260 260 260 260 259 259 259 258 258 258 258 259 259 259 259 259 259 260 260 260 260 261 261 261 261 261 261 260 259 259 260 260 260 260 260
272 271 271 271 271 270 270 270 269 269 269 268 268 267 267 267 266 266 266 266 265 265 265 265 265 265 264 264 264 263 263 263 263 262 262 262 262 262 262 261 261 261 261 261 261 261 261 261 260 260 260 260 260 259 259 259 258 258 258 258 258 258 259 259 259 259 259 259 260 260 260 260 260 260 261 261 260 260 260 260 260 260 260 260 260
272 271 271 271 270 270 270 269 269 269 268 268 268 267 267 267 266 266 265 265 265 265 265 265 265 264 264 264 263 263 263 263 262 262 262 262 262 262 262 262 261 261 261 261 261 261 260 260 260 260 260 260 260 259 259 258 258 258 258 258 258 258 258 259 259 259 259 259 260 260 260 260 260 261 261 261 260 260 260 260 260 261 261 261 261
272 271 271 270 270 270 269 269 269 268 268 268 267 267 266 266 266 265 265 265 265 264 264 264 264 264 264 263 263 263 263 262 262 262 262 262 262 262 262 262 261 261 261 261 261 260 260 260 260 260 260 260 259 259 258 258 258 258 258 258 258 258 258 258 258 258 259 259 259 260 260 260 260 261 261 260 260 260 260 260 261 261 261 261 261
272 271 271 270 270 269 269 269 268 268 268 267 267 266 266 265 265 265 265 265 264 264 264 264 264 263 263 263 263 263 262 262 262 262 262 261 261 261 261 261 261 261 261 261 260 260 260 260 260 260 260 260 259 259 258 258 258 258 258 258 258 258 258 258 258 258 258 258 259 259 259 260 260 260 260 260 260 260 260 261 261 261 261 261 262
271 271 270 270 269 269 268 268 268 267 267 267 266 266 265 265 265 265 264 264 264 264 263 263 263 263 263 263 262 262 262 262 262 262 261 261 261 261 261 261 261 261 261 261 260 260 260 260 260 260 260 260 259 258 258 258 258 258 257 257 258 258 258 258 258 258 258 258 258 259 259 260 260 260 260 260 260 260 260 261 261 261 261 261 262
270 270 269 269 268 268 268 267 267 267 267 266 266 266 265 265 265 264 264 264 263 263 263 263 263 263 262 262 262 262 262 262 262 261 261 261 261 261 261 261 261 261 261 260 260 260 260 260 260 260 260 259 259 258 258 258 258 258 257 257 257 258 258 258 258 258 258 258 258 258 259 259 260 260 260 260 260 260 261 261 261 261 261 261 262
269 269 268 268 268 267 267 267 266 266 266 266 265 265 265 264 264 264 264 263 263 263 263 262 262 262 262 262 262 262 262 261 261 261 261 261 261 261 261 261 261 261 260 260 260 260 260 260 260 259 259 259 259 258 258 258 258 258 258 257 257 257 257 258 258 258 258 258 258 258 259 259 260 260 260 260 260 261 261 261 261 261 261 261 262
268 268 268 267 267 267 266 266 266 266 265 265 265 264 264 264 264 263 263 263 263 263 262 262 262 262 262 262 262 261 261 261 261 261 261 261 261 261 261 261 260 260 260 260 260 260 260 259 259 259 259 259 258 258 258 258 258 258 258 257 257 257 257 258 258 258 258 258 258 258 258 259 259 260 260 260 260 261 261 261 261 261 261 262 262
268 267 267 267 266 266 266 266 265 265 265 265 264 264 264 264 263 263 263 263 262 262 262 262 262 262 261 261 261 261 261 261 261 261 261 261 261 260 260 260 260 260 260 260 260 260 260 259 259 259 259 259 258 258 258 258 258 258 257 257 257 257 257 257 258 258 258 258 258 258 259 259 259 260 260 260 261 261 261 261 261 261 261 261 262
267 267 266 266 266 266 265 265 265 265 264 264 264 264 263 263 263 263 262 262 262 262 262 262 262 261 261 261 261 261 261 261 261 261 261 260 260 260 260 260 260 260 260 260 260 260 259 259 259 258 258 258 258 258 258 258 257 257 257 257 257 258 257 257 258 258 258 258 258 258 259 259 259 260 260 260 261 261 261 261 261 261 261 261 261
266 266 266 265 265 265 265 264 264 264 264 263 263 263 263 263 263 262 262 262 262 262 261 261 261 261 261 261 261 261 261 261 261 260 260 260 260 260 260 260 260 260 260 260 260 259 259 259 258 258 258 258 258 258 257 257 257 257 257 257 257 258 258 258 258 258 258 258 258 258 258 259 259 260 260 260 261 261 261 261 261 261 261 261 261
Wind_Speed
8 8 8 8 9 9 10 11 12 13 13 15 17 17 16 16 16 15 15 15 15 15 16 16 17 17 18 19 19 19 19 20 20 20 20 20 20 20 21 20 21 21 21 20 20 21 22 21 21 21 21 22 22 22 22 22 23 24 24 26 26 26 27 28 32 39 39 34 36 39 38 39 40 40 40 42 40 38 36 35 34 34 35 35 35
9 9 9 9 9 10 11 12 13 14 14 16 17 17 17 16 16 15 15 15 15 15 16 16 17 18 18 19 19 19 20 20 20 20 20 20 20 20 21 21 21 21 21 21 20 20 21 21 21 21 22 22 22 23 23 23 24 25 25 26 27 27 27 29 31 35 40 39 37 39 40 39 39 39 38 39 40 39 37 36 35 34 33 32 32
10 10 10 10 10 11 12 13 13 14 15 16 18 18 17 16 16 15 15 14 15 15 16 16 17 18 18 19 19 19 20 20 20 20 21 21 21 20 21 21 21 21 21 21 21 21 21 20 20 21 22 23 23 22 23 25 25 26 27 26 28 28 28 29 30 32 38 41 38 39 40 38 37 37 36 36 38 38 37 37 36 35 34 32 33
12 12 11 11 11 12 12 13 14 15 15 16 18 18 17 16 16 15 14 14 14 15 16 16 17 18 18 19 19 19 20 20 20 20 21 21 21 21 21 21 21 21 21 21 21 21 21 21 21 21 22 22 23 23 24 25 26 27 28 28 28 30 29 29 30 32 35 39 40 38 38 37 35 33 33 35 36 36 36 37 37 37 36 35 36
14 13 13 13 13 13 13 14 14 15 16 17 18 18 17 16 16 15 14 14 14 15 15 16 17 18 18 18 19 19 20 20 20 20 21 21 21 21 21 21 21 20 21 21 21 21 21 21 21 21 22 23 23 24 24 26 27 27 28 28 28 29 30 30 30 31 32 36 39 38 36 35 32 30 31 33 35 36 36 37 37 37 37 38 39
15 15 14 14 14 14 14 15 15 16 16 17 18 18 17 16 16 15 14 14 14 15 15 16 17 17 18 19 19 19 19 20 20 21 21 21 21 21 21 21 21 20 21 21 21 21 20 21 21 21 22 23 24 25 26 26 27 27 27 28 28 28 29 29 29 30 31 33 35 35 33 30 28 30 31 31 32 35 35 36 37 37 38 41 41
17 16 16 16 15 15 15 15 16 17 17 18 19 18 18 17 16 15 15 14 15 15 15 16 17 17 18 18 19 19 19 20 21 21 21 21 21 21 21 21 21 21 21 21 21 21 21 21 21 21 21 23 23 24 25 26 26 26 27 27 27 26 27 28 28 28 28 29 30 30 29 28 27 30 33 32 32 32 31 34 38 39 39 40 42
18 18 18 17 17 17 16 16 17 17 18 18 19 19 18 17 16 15 15 15 15 15 15 16 16 17 18 18 18 19 19 20 20 21 21 22 22 22 22 22 22 21 21 21 21 21 21 21 21 22 21 22 22 22 23 23 23 25 25 24 24 24 25 26 26 25 25 26 27 27 27 28 29 30 33 34 33 34 33 33 36 39 39 41 43
19 19 19 19 18 18 18 17 18 18 19 19 20 20 18 17 17 16 16 16 15 16 16 16 16 16 17 18 18 19 19 19 20 20 21 22 23 23 22 22 22 22 22 22 21 21 22 22 22 22 22 21 21 21 21 20 20 22 22 21 22 23 23 24 24 24 25 25 26 27 27 29 29 29 31 30 29 32 33 31 32 34 35 38 40
20 21 20 20 19 20 19 18 19 19 20 20 21 20 19 18 18 17 17 16 16 16 16 16 17 17 17 18 18 18 19 19 19 20 20 20 21 22 23 23 22 23 23 23 23 22 22 22 22 22 22 21 21 21 21 21 20 19 19 19 20 22 23 24 23 23 24 25 26 27 28 29 28 27 28 29 28 30 32 32 32 34 35 35 36
21 22 21 21 21 21 20 19 20 20 21 21 21 21 20 19 18 18 18 17 17 17 17 17 17 17 17 18 18 18 19 19 19 19 19 19 20 21 23 24 23 23 23 23 23 23 22 22 22 22 22 22 22 22 22 22 21 19 18 18 19 21 22 23 23 23 24 25 26 26 27 28 29 28 28 29 29 30 32 33 34 35 35 35 36
22 22 22 22 22 21 20 20 21 21 22 22 22 21 20 19 19 19 18 18 18 18 18 18 18 18 18 18 18 18 19 19 19 19 19 19 19 20 22 24 24 23 23 23 23 23 23 22 22 22 22 22 22 23 23 22 21 20 20 20 21 21 20 20 22 23 23 25 26 26 26 28 29 29 28 30 31 33 34 35 35 34 35 35 36
22 22 23 23 23 22 21 21 22 22 23 23 23 22 21 20 19 20 19 19 19 19 19 19 18 19 18 18 18 18 18 19 19 19 19 19 19 20 22 24 24 23 23 23 23 23 23 23 22 22 22 22 22 23 22 22 21 21 22 23 23 22 19 18 19 20 21 23 26 27 27 28 30 31 30 31 33 36 36 36 36 35 36 37 36
22 23 23 23 23 22 22 22 23 23 24 24 24 23 22 21 20 20 20 19 19 19 19 19 19 19 19 19 19 19 18 19 19 19 19 20 20 21 23 24 23 23 23 23 22 22 22 22 22 22 22 22 22 22 21 20 21 22 23 24 22 21 20 20 20 22 24 24 26 28 28 28 30 31 32 32 34 35 36 37 38 37 37 38 38
23 24 23 23 23 23 23 23 23 24 24 25 25 23 22 21 21 21 21 20 20 20 20 20 19 19 19 19 19 19 18 19 19 19 19 20 20 22 24 24 23 23 23 23 22 22 22 22 22 22 21 21 21 20 18 19 21 23 23 23 23 24 27 27 27 30 31 28 26 28 28 27 29 32 35 35 34 35 36 37 37 37 37 38 38
24 24 24 24 24 24 24 24 24 24 25 25 25 24 23 22 21 21 21 20 20 20 20 20 20 20 20 20 20 19 18 19 19 19 20 20 21 23 24 24 24 24 23 23 23 22 22 22 22 21 21 21 20 18 17 19 22 23 23 24 27 32 36 35 34 35 33 29 26 26 28 31 33 36 36 34 33 33 34 35 36 34 35 38 38
25 25 24 24 24 25 25 25 25 25 26 26 25 24 23 23 22 22 22 21 21 21 21 21 21 21 21 21 21 20 19 19 20 20 20 20 21 23 24 24 24 24 24 23 23 23 22 22 21 20 20 19 18 17 18 20 22 23 25 29 33 37 38 37 37 37 33 29 29 31 35 38 38 37 35 33 31 29 30 34 35 32 32 37 39
25 25 24 24 25 25 25 25 25 26 26 26 25 25 24 24 23 23 23 22 21 21 22 21 21 21 22 21 22 22 20 19 20 20 20 20 21 22 24 24 24 25 25 24 23 23 23 22 20 19 19 18 17 17 18 20 22 24 27 31 35 37 39 39 38 37 36 35 36 38 40 40 39 39 37 35 32 27 26 29 31 30 31 34 36
25 24 24 24 25 26 26 26 26 26 26 26 25 25 25 24 24 24 24 23 22 22 22 22 22 21 22 22 22 22 22 20 20 20 20 20 20 21 23 24 25 25 24 24 24 24 22 22 22 20 18 17 17 18 20 21 22 24 27 31 35 38 39 38 35 35 39 41 41 41 41 40 39 39 38 36 32 27 23 24 26 27 29 31 32
23 23 23 25 26 26 26 26 26 26 26 26 26 26 26 25 25 25 25 24 23 22 22 23 22 22 22 23 22 22 22 21 20 20 21 20 19 20 22 23 24 24 24 24 23 22 21 23 24 21 18 18 20 21 21 21 22 26 29 32 35 37 36 34 34 37 41 43 42 41 41 40 39 38 36 35 32 28 24 22 22 23 26 29 31
22 23 25 26 27 27 26 26 26 27 26 26 27 27 26 26 26 26 26 24 24 23 23 23 24 23 22 23 23 22 22 22 21 20 21 20 19 19 21 22 23 23 22 21 19 19 21 22 21 19 20 22 22 22 22 21 22 27 31 32 34 34 33 34 37 40 41 41 40 40 40 38 37 37 35 34 32 30 28 26 24 25 27 30 34
23 25 26 26 27 27 27 26 27 27 27 27 27 27 27 27 27 27 27 26 25 24 24 24 24 24 24 23 23 22 22 22 22 21 20 20 20 19 19 21 20 19 19 20 19 19 19 19 20 22 24 24 22 22 22 22 24 29 32 33 33 33 33 36 38 39 38 38 38 38 38 37 37 36 35 34 33 32 31 31 29 28 28 29 31
24 25 25 26 27 27 27 27 28 28 27 27 28 28 28 28 28 28 28 27 26 25 25 25 25 25 25 24 23 22 22 22 22 22 21 20 19 18 18 18 18 17 18 20 20 20 22 23 24 25 24 23 23 23 23 24 28 31 32 33 34 34 35 36 36 36 36 36 36 37 37 36 37 36 35 35 34 34 34 33 32 31 30 30 29
24 25 26 27 27 28 28 29 29 29 28 28 28 29 29 29 29 29 29 28 27 26 25 25 25 26 26 25 23 22 22 23 22 22 22 21 20 19 18 18 17 16 18 20 21 24 25 24 23 22 21 22 24 26 26 28 30 33 34 34 34 34 34 33 33 33 34 34 35 36 36 35 35 36 36 35 35 35 35 34 33 32 32 32 32
24 25 27 27 28 29 29 30 30 30 29 29 29 29 29 30 30 30 30 29 28 27 26 25 26 26 27 26 24 23 23 23 23 22 22 22 21 20 18 18 18 18 19 22 24 24 23 21 20 21 22 24 27 29 31 32 33 34 35 34 33 32 31 31 31 32 33 33 34 35 35 34 34 34 35 35 36 36 35 35 35 34 33 34 35
25 26 27 28 29 30 31 31 32 31 31 30 30 30 30 30 31 31 30 30 29 28 27 26 26 27 27 26 25 24 24 23 23 23 23 22 21 20 19 18 18 18 19 22 22 21 21 21 22 24 27 30 32 33 35 35 36 36 34 32 31 30 29 30 31 31 32 33 33 34 34 34 34 34 34 35 35 35 35 36 36 36 35 37 39
27 28 29 30 30 31 32 33 33 32 32 32 31 31 31 31 31 31 31 30 30 29 28 27 27 27 27 26 26 25 25 24 23 22 22 22 21 20 19 19 19 19 21 23 22 22 23 25 26 29 32 33 34 34 35 36 36 34 32 30 30 29 28 28 29 30 31 31 32 33 33 33 34 34 34 34 34 34 33 34 36 37 37 38 40
28 29 30 31 32 33 33 34 34 34 33 33 33 32 31 31 32 32 31 30 30 29 28 28 28 27 27 27 26 26 26 24 23 22 22 22 22 20 19 19 20 21 23 24 23 24 26 27 30 32 33 34 34 35 35 35 34 32 31 30 29 28 27 27 27 28 29 30 31 32 33 33 34 34 34 34 34 33 33 33 35 36 37 37 40
30 30 31 32 33 33 34 34 34 34 34 34 33 32 32 31 32 32 31 30 30 29 29 29 28 27 27 27 27 27 27 24 22 22 22 21 19 17 17 18 19 21 22 21 22 25 28 30 31 33 33 34 36 35 34 33 32 31 30 29 29 28 27 27 27 28 28 29 30 32 32 33 34 34 34 34 34 33 32 33 34 35 36 37 39
31 32 32 33 33 33 34 34 34 34 34 34 34 33 32 32 32 32 31 30 30 29 29 29 28 27 28 28 27 27 27 25 23 22 21 19 17 16 17 17 19 21 20 19 22 27 30 30 31 32 33 35 35 34 33 32 32 31 30 29 29 28 27 26 26 27 28 28 30 31 32 33 33 33 34 34 34 33 33 33 33 34 35 37 39
33 34 34 34 33 33 34 34 34 34 34 34 34 33 33 32 33 32 31 30 29 29 28 29 28 28 29 29 28 27 26 25 23 22 19 17 17 18 19 20 22 22 18 18 23 29 29 30 31 31 32 33 33 32 31 31 31 31 31 30 29 27 27 26 26 27 28 28 29 30 30 31 32 33 33 33 34 34 33 33 33 34 35 36 39
34 35 34 34 33 34 34 34 34 34 34 33 34 33 33 33 33 32 31 30 30 29 28 28 28 27 27 28 28 28 27 26 23 21 19 19 20 20 21 23 23 20 17 19 25 28 28 29 30 30 31 31 31 31 30 30 30 30 30 30 29 27 26 26 26 27 28 28 29 29 30 30 31 32 32 32 33 34 34 34 33 34 36 37 38
34 34 34 34 34 34 34 34 34 34 34 33 34 33 33 34 33 32 30 30 30 30 29 28 27 27 26 26 26 27 27 25 22 20 22 24 23 22 23 23 21 19 20 23 26 26 26 28 29 29 30 31 31 31 30 29 29 29 29 29 29 28 26 26 26 26 27 27 28 29 29 29 30 30 30 31 32 33 34 34 34 35 37 38 40
33 33 33 34 34 35 35 34 34 34 34 34 34 34 34 33 33 32 31 30 30 31 30 28 27 26 26 25 25 26 26 25 24 24 26 26 25 23 23 22 21 21 21 23 24 25 26 28 28 29 30 30 30 31 31 30 29 28 28 28 28 28 26 26 26 26 26 27 27 28 28 28 29 29 30 31 32 33 33 34 35 36 37 39 40
32 32 32 33 35 35 35 35 34 34 34 34 34 34 33 32 32 32 31 31 31 31 30 28 26 26 26 25 25 25 26 26 26 26 25 24 23 23 23 24 24 23 20 20 22 24 26 27 29 29 29 30 30 31 31 30 29 28 28 28 28 27 27 26 26 26 26 26 27 27 28 28 28 28 30 31 32 33 34 34 35 36 37 38 40
31 32 32 33 34 34 34 34 34 34 34 34 34 33 33 32 32 32 31 31 32 32 31 28 26 26 27 26 25 25 25 25 25 25 23 23 22 23 24 26 26 23 21 21 22 24 25 27 28 29 30 30 31 31 31 30 29 27 27 27 27 27 27 26 26 26 26 26 27 27 28 28 28 28 29 31 32 32 33 34 35 36 36 38 38
32 32 32 33 33 33 34 34 34 34 34 34 34 34 33 33 32 32 32 32 32 32 30 28 27 26 27 26 25 25 25 25 25 24 23 23 22 23 25 26 25 23 23 23 23 24 26 27 28 29 30 31 31 31 30 29 28 27 26 26 26 26 26 26 26 26 26 26 27 27 27 28 27 28 29 31 32 32 33 34 35 36 36 36 37
31 32 32 32 33 33 33 34 34 34 35 35 35 35 34 33 33 32 32 32 32 31 30 29 27 27 26 24 24 24 25 25 25 24 23 23 23 23 24 24 24 24 25 24 25 26 28 28 28 29 30 31 32 32 30 29 27 26 26 25 25 25 25 25 25 25 25 26 26 27 27 28 27 28 29 30 31 32 33 34 35 36 37 36 37
31 31 31 31 31 32 33 33 33 34 34 35 34 34 34 34 33 32 32 32 31 31 30 29 28 27 25 23 23 24 25 25 25 24 24 23 23 23 24 24 24 25 26 26 27 28 29 30 30 30 31 31 32 32 30 28 27 26 25 25 25 25 24 24 24 24 25 26 26 27 27 27 27 28 29 29 30 32 34 35 35 35 36 37 37
31 31 30 30 31 31 32 32 33 33 33 33 33 33 34 33 32 32 31 31 31 31 30 29 28 26 24 23 23 25 25 25 24 24 24 24 24 24 25 25 25 26 26 27 28 29 30 31 31 31 31 32 32 31 30 28 26 25 24 25 25 25 24 24 24 24 25 25 26 27 27 27 28 29 28 28 30 32 34 34 34 34 35 36 37
31 32 32 31 31 31 31 32 32 31 31 32 32 32 33 32 31 31 30 31 31 30 29 29 28 25 23 23 23 24 26 26 24 24 25 25 25 25 26 26 26 27 27 28 29 30 31 32 31 31 32 32 31 30 29 27 25 24 24 24 24 24 24 24 23 24 25 25 26 27 27 27 28 29 28 28 30 32 33 33 33 33 34 35 36
32 32 32 32 32 32 32 32 31 30 30 31 31 31 31 30 30 30 30 30 30 29 29 29 27 25 24 23 22 24 25 26 25 25 25 25 26 26 26 26 26 27 28 29 29 31 32 32 31 31 32 32 31 29 28 26 25 24 23 23 23 24 24 24 23 23 25 26 26 27 27 28 28 28 28 29 31 32 32 32 33 33 34 35 35
32 32 32 32 32 32 31 31 30 29 30 30 30 30 29 29 29 29 29 29 29 29 29 29 27 25 24 23 22 24 25 25 25 25 25 25 26 26 26 26 26 28 29 30 30 31 31 32 31 31 31 31 30 28 26 25 24 23 23 22 23 23 23 23 23 23 25 26 26 27 27 28 28 28 28 29 30 31 31 32 32 33 34 34 34
32 32 31 32 32 31 30 30 29 29 29 29 28 28 28 28 28 28 28 28 28 28 28 27 26 25 24 23 23 24 25 24 25 25 25 25 26 26 26 26 27 28 29 30 30 31 31 31 31 32 31 30 28 26 25 24 23 23 23 22 22 23 22 22 22 23 24 26 27 27 28 28 28 29 29 29 30 31 31 31 32 32 33 33 33
31 31 30 30 31 30 29 28 28 28 28 28 28 27 27 27 27 26 26 27 27 26 26 26 25 25 24 23 23 24 24 24 24 24 24 25 25 25 26 26 26 27 29 29 30 30 30 30 31 31 30 29 26 25 24 23 22 22 22 21 22 22 22 22 22 23 23 25 26 27 28 28 28 28 29 29 29 30 30 30 31 31 32 32 32
29 29 29 29 28 28 27 27 26 26 26 26 26 26 26 25 25 25 25 25 25 25 25 25 24 24 24 23 23 23 23 23 24 24 24 24 25 25 25 25 26 27 28 28 29 29 29 30 31 30 29 27 25 24 23 22 21 21 21 20 21 21 21 21 22 22 23 24 26 26 28 28 28 28 28 29 29 29 29 29 30 30 31 31 30
26 27 27 27 27 26 26 25 25 25 25 24 25 24 24 24 24 23 23 24 24 24 24 24 23 23 23 22 22 22 22 23 23 23 23 24 24 24 24 25 25 26 26 27 28 29 29 29 29 28 27 26 25 23 22 21 20 20 20 20 20 20 21 21 22 22 22 23 24 26 27 28 28 28 28 28 28 28 28 28 29 29 29 29 28
25 24 24 24 25 25 25 24 24 24 23 23 23 23 22 22 22 22 22 22 22 22 22 22 22 21 21 21 21 21 21 22 23 23 23 23 23 23 23 24 24 25 26 26 27 28 29 28 27 25 25 24 24 22 21 20 20 20 20 19 19 20 20 21 21 22 22 22 23 25 26 26 27 28 27 27 27 27 27 28 28 28 28 27 26
23 22 22 22 22 22 22 22 22 22 22 21 21 21 21 21 21 21 21 21 21 21 21 21 20 20 20 20 21 21 21 22 22 22 22 22 22 22 23 23 24 25 26 26 27 28 27 26 24 23 23 23 22 22 21 20 20 20 20 19 19 19 20 20 21 21 21 22 23 23 24 25 26 26 26 26 26 26 26 26 27 27 26 26 25
20 21 20 21 20 20 19 20 20 20 20 20 19 19 19 19 20 20 20 20 20 20 20 20 20 19 20 20 20 20 21 21 21 21 21 21 21 22 23 23 24 25 26 27 27 26 24 23 22 22 22 21 21 21 20 20 20 20 20 20 20 19 19 19 20 20 20 21 22 22 23 24 25 25 25 25 25 25 24 25 25 25 24 24 23
18 18 19 19 19 18 18 18 18 18 18 18 18 18 18 18 18 18 18 19 19 19 19 19 19 19 20 20 20 20 20 20 20 20 20 21 21 22 23 24 25 25 26 26 25 23 22 21 20 20 20 20 20 20 19 19 19 20 20 20 19 19 19 19 19 19 19 20 20 21 22 23 25 24 24 24 24 24 23 23 23 23 22 22 21
Wind_Direction
280 292 304 314 321 328 334 336 339 340 341 344 347 349 350 351 352 352 353 354 354 355 355 354 355 354 354 353 353 352 351 350 348 347 346 344 343 341 340 340 339 339 338 337 335 332 331 332 332 330 327 325 326 327 325 323 320 320 321 320 318 319 319 317 313 311 313 316 316 316 319 319 317 319 319 318 320 321 319 317 315 312 312 314 315
273 284 294 303 311 319 325 329 334 335 337 341 344 346 347 347 349 349 349 350 350 351 351 351 352 352 351 352 352 350 350 349 347 346 345 344 343 342 341 340 340 339 338 337 336 333 332 333 333 330 327 326 328 328 327 325 324 323 323 322 320 321 321 320 319 315 313 317 319 319 321 323 321 321 323 322 323 324 322 320 318 316 315 315 312
269 277 286 294 301 310 317 323 329 331 334 337 340 342 343 343 345 345 345 345 346 347 348 348 349 349 350 350 349 349 348 347 347 346 345 344 344 344 342 341 341 340 339 337 336 335 335 335 334 330 328 328 328 329 327 326 326 326 324 325 324 322 322 322 319 317 315 317 320 321 323 325 324 324 325 324 324 324 323 322 321 321 320 317 311
265 271 279 286 293 302 310 317 322 326 329 332 336 338 338 340 340 340 340 340 341 342 343 345 346 347 347 347 347 347 346 346 345 344 344 343 343 344 343 343 342 340 339 338 338 337 337 335 334 331 330 329 329 329 327 325 326 326 325 326 325 323 323 322 320 320 319 318 320 323 325 326 326 325 325 325 325 324 323 323 322 322 321 318 315
262 267 273 280 287 295 303 310 316 320 323 327 331 333 335 336 336 335 335 334 336 338 339 341 343 344 345 346 346 345 343 343 343 342 342 341 341 342 343 343 342 340 339 338 339 339 339 336 334 332 331 331 330 328 327 326 326 325 325 325 325 323 323 322 323 324 322 320 321 323 326 326 325 324 325 326 326 324 323 323 322 321 320 318 318
259 265 269 275 282 289 297 304 309 314 317 322 327 330 331 332 331 331 330 330 331 333 335 338 339 341 343 343 343 343 341 340 339 339 339 338 338 339 340 341 340 338 338 339 339 339 338 335 332 332 332 331 330 328 327 326 326 325 326 325 324 324 322 323 325 325 322 320 320 321 323 324 322 322 324 326 324 324 325 324 321 319 319 319 319
258 262 267 272 278 285 292 298 303 309 312 318 324 326 327 327 328 327 326 326 327 329 331 334 335 338 340 341 341 341 340 338 337 336 335 334 334 335 337 338 337 336 337 337 337 336 333 331 330 331 331 329 328 327 326 326 326 325 324 324 325 325 324 325 326 323 320 319 318 317 318 319 319 319 322 325 325 326 327 324 321 322 322 322 322
257 261 265 270 275 281 288 293 298 303 308 313 319 322 323 323 324 324 323 322 322 324 326 329 331 334 336 339 339 339 338 336 335 333 332 332 331 331 334 335 333 333 333 333 334 332 329 328 328 328 327 326 325 324 324 323 322 320 321 324 325 325 324 323 322 320 317 315 315 315 316 317 318 320 323 327 328 327 328 325 322 324 325 324 325
257 260 265 269 274 279 284 289 294 299 304 309 315 318 319 320 320 320 320 319 319 320 322 324 326 330 333 336 337 336 335 334 333 333 332 331 329 328 329 330 329 328 329 329 329 327 325 325 325 324 323 321 320 318 317 316 315 316 320 322 321 321 320 319 318 317 316 314 313 314 315 315 318 321 323 325 325 323 324 323 321 321 321 321 323
257 260 265 269 272 276 280 285 291 296 300 306 311 315 316 317 317 317 316 316 316 317 317 319 322 326 330 332 333 334 333 332 333 332 331 329 326 323 324 325 325 325 325 326 325 324 323 322 320 319 318 317 316 315 314 314 313 313 315 318 319 319 317 316 316 315 315 313 312 313 314 313 316 319 318 319 320 319 320 321 319 318 318 317 317
258 261 265 267 269 274 278 282 288 293 297 303 308 311 312 312 314 314 314 314 314 314 315 316 319 322 325 327 329 331 330 330 331 329 328 327 322 319 319 320 321 324 324 323 322 321 321 319 318 317 316 315 314 313 313 314 313 313 316 317 316 315 315 314 314 314 313 311 311 312 311 311 313 316 316 317 319 318 318 318 316 316 317 316 314
259 262 264 266 268 272 276 280 286 290 294 300 304 306 308 309 310 311 311 311 311 311 312 313 315 317 320 323 325 327 328 327 327 327 325 324 321 316 314 315 319 323 322 320 320 321 320 319 317 315 315 315 314 313 314 315 316 319 320 317 315 317 317 314 312 313 313 311 311 310 310 311 312 314 315 317 316 315 314 313 313 312 311 310 309
260 262 263 265 268 272 275 278 283 287 291 296 300 302 304 305 306 307 308 308 308 308 308 309 311 313 315 319 320 322 324 323 323 324 322 321 319 313 311 314 318 320 320 320 320 321 320 319 317 315 315 315 314 317 321 324 324 323 320 319 320 321 319 314 312 311 311 310 308 306 307 308 308 308 311 313 313 312 311 310 309 308 306 306 305
261 262 262 264 268 271 274 277 281 284 288 293 296 298 300 302 303 304 305 305 304 304 304 305 307 309 311 313 315 317 319 319 319 320 319 318 316 310 310 314 317 318 318 319 320 320 320 319 317 317 318 318 320 324 327 326 322 319 319 319 319 317 313 312 312 309 309 309 305 302 304 306 305 306 308 309 309 308 307 306 306 305 303 302 300
263 262 262 264 268 271 273 276 278 281 285 290 292 294 296 298 300 300 301 302 302 301 302 302 304 305 307 308 310 313 315 316 316 316 316 315 312 308 309 313 315 316 317 318 319 319 319 319 318 320 321 322 325 327 323 317 315 316 316 316 312 306 301 303 306 308 310 309 304 303 304 305 305 304 305 307 306 304 303 301 300 301 300 300 299
262 261 262 265 269 271 273 274 275 278 283 286 289 291 293 295 297 298 299 300 300 299 299 299 300 302 303 305 306 309 312 312 313 313 313 312 309 306 309 312 312 314 316 317 317 316 317 318 319 322 323 322 323 320 314 313 314 315 314 310 305 299 298 301 306 309 312 309 303 302 303 304 306 306 306 307 305 304 304 301 299 300 301 300 300
261 261 263 267 269 271 272 272 274 277 281 283 286 288 290 292 294 296 297 298 298 297 297 297 299 300 302 303 304 306 309 310 310 311 311 310 308 306 308 310 311 313 314 314 314 314 314 316 318 320 319 317 315 312 311 313 314 313 311 306 302 300 301 306 310 313 313 309 303 304 306 308 310 310 310 311 309 308 305 301 300 303 302 300 300
261 262 266 268 269 270 270 271 273 275 278 281 284 286 288 291 293 295 296 297 297 296 295 295 297 298 299 301 302 304 306 308 308 308 309 308 307 306 307 309 310 311 313 312 312 312 312 314 316 316 313 310 307 307 310 313 314 312 308 304 302 303 306 312 316 316 312 308 307 309 311 312 313 313 314 315 316 314 306 300 302 304 301 298 299
263 266 268 268 268 268 270 271 272 274 277 280 282 284 286 289 291 293 294 295 295 294 293 292 293 294 295 297 298 301 303 305 305 305 306 306 306 305 305 307 309 311 311 310 311 312 313 312 312 312 309 303 301 305 309 312 311 309 305 303 301 304 310 318 319 312 308 308 311 312 312 312 314 314 315 317 319 319 312 305 305 305 302 300 301
266 267 266 266 267 268 269 270 271 273 276 279 280 282 284 287 289 291 293 294 293 292 291 291 291 292 293 295 297 299 301 303 304 304 304 305 305 304 303 304 307 308 309 311 313 312 309 308 309 311 307 300 301 305 308 311 310 304 300 300 302 307 315 317 309 304 306 310 312 311 311 312 313 313 315 317 319 320 315 306 301 298 295 294 294
265 264 265 266 267 268 268 269 270 272 275 277 279 281 283 286 288 290 292 293 293 292 291 290 291 292 292 293 296 298 300 301 302 302 302 302 302 302 301 302 305 308 310 310 307 303 303 305 306 304 301 302 305 307 308 311 308 298 294 297 303 309 312 307 302 304 309 310 310 310 311 312 313 314 316 318 319 320 317 311 305 299 292 289 288
264 264 266 266 267 268 268 268 270 272 275 277 279 281 283 285 287 290 292 292 292 291 290 290 290 291 291 292 294 296 297 298 298 299 299 299 300 300 299 300 303 304 302 299 298 299 300 299 295 296 302 309 312 309 308 305 297 290 293 299 304 305 304 302 304 307 309 309 310 312 313 315 317 317 318 320 320 321 319 316 313 309 302 297 294
265 265 266 267 267 268 269 270 272 274 276 277 278 280 281 283 286 288 290 291 290 290 289 289 289 289 289 290 292 293 294 294 295 297 297 297 298 298 297 296 296 293 292 294 296 293 289 290 296 304 311 313 307 299 297 294 291 294 302 307 306 305 304 305 307 308 309 311 313 314 316 318 319 320 321 322 321 320 320 318 316 313 309 306 303
266 266 267 267 268 270 270 271 273 274 275 276 277 278 280 282 285 287 289 290 290 289 288 288 288 288 289 290 291 293 294 295 296 297 298 298 299 299 297 293 288 284 284 285 284 285 291 300 307 310 309 303 295 290 291 295 300 306 310 311 309 308 307 308 310 311 312 314 315 315 317 319 320 321 322 322 321 320 320 319 317 316 316 313 311
267 267 268 268 269 270 270 271 272 273 275 275 276 277 280 282 284 286 288 289 289 289 289 289 288 288 289 291 293 294 294 294 296 297 298 299 300 299 297 292 286 282 281 281 285 294 303 307 305 301 300 300 300 301 304 308 311 312 312 311 310 310 311 312 314 314 314 315 316 316 318 319 320 321 321 320 320 321 321 320 318 319 320 319 315
268 268 268 268 269 269 270 271 272 274 275 276 277 278 279 281 283 285 287 288 289 289 289 288 288 288 289 291 294 294 293 294 296 296 297 298 300 300 297 292 289 290 289 290 298 308 313 310 307 305 305 306 307 309 310 311 312 312 312 312 312 313 315 315 316 316 316 316 316 316 317 319 319 319 320 320 320 322 324 323 322 323 325 325 320
269 268 268 268 268 268 270 271 272 274 275 276 277 277 278 280 282 283 285 287 288 288 288 288 287 288 289 291 292 292 292 293 294 295 296 297 298 298 297 296 299 302 300 303 313 321 318 313 308 305 304 304 306 307 308 309 311 312 312 314 314 315 316 316 316 316 316 316 316 316 317 318 318 319 321 321 321 325 326 325 324 326 328 328 324
270 269 269 268 268 268 269 271 272 273 275 275 277 278 278 279 281 282 284 285 286 287 287 286 287 288 289 290 290 290 291 293 295 296 296 295 297 300 303 306 308 307 307 314 322 319 309 302 298 298 301 303 304 306 308 309 310 311 313 315 315 316 315 315 314 315 315 315 315 316 318 319 320 321 322 322 323 326 327 326 325 326 328 328 325
271 270 269 267 268 268 269 270 272 273 275 276 277 278 279 279 280 281 282 283 284 285 285 285 286 287 287 287 289 290 291 293 294 294 293 295 298 300 300 302 303 301 303 312 312 301 294 293 295 298 302 303 305 308 310 311 312 313 314 315 315 316 316 315 315 315 315 316 317 318 319 320 320 322 323 323 325 326 327 328 327 327 328 327 324
271 270 269 268 269 269 270 271 272 274 275 276 277 278 278 278 278 279 280 281 282 283 283 284 286 286 285 286 287 287 289 291 290 288 290 293 292 285 282 285 287 288 295 304 298 290 289 292 296 299 303 305 308 312 314 314 314 314 314 315 316 317 317 316 316 316 316 317 318 319 320 320 321 323 324 324 325 326 328 328 328 328 329 327 324
269 269 270 270 271 272 272 273 273 274 275 276 277 277 277 277 277 278 280 280 281 281 281 282 284 284 285 286 287 286 286 287 286 286 286 283 275 271 271 274 279 285 295 299 291 286 288 293 297 302 306 308 312 315 316 316 315 314 314 314 316 317 317 317 317 316 316 317 318 318 320 321 322 324 325 325 325 327 328 329 329 329 328 325 322
268 270 272 273 274 273 273 274 274 274 275 275 276 276 277 277 277 278 279 280 279 279 278 278 280 281 282 283 285 286 286 286 288 288 282 272 268 267 269 273 279 286 289 283 279 282 290 297 301 306 310 312 315 317 317 316 314 313 313 314 315 317 318 317 316 316 316 317 318 318 320 322 323 323 324 325 326 327 327 329 330 330 328 325 322
268 271 273 273 274 273 273 274 274 274 275 275 275 275 276 277 278 279 279 278 277 277 276 277 278 278 277 277 278 279 281 282 281 276 271 272 275 275 275 276 279 279 277 277 281 288 297 301 305 310 313 315 317 318 318 316 314 312 312 313 314 316 317 316 316 315 315 317 318 319 320 322 323 323 324 325 327 327 327 329 330 329 326 323 322
270 271 272 273 272 272 273 273 274 274 275 275 275 276 277 278 280 280 278 277 276 276 277 278 278 277 276 275 275 274 274 273 269 266 268 274 277 278 277 275 273 272 276 282 289 296 300 304 308 312 314 316 318 318 317 316 314 311 310 311 312 314 315 315 315 314 315 317 318 319 320 322 324 325 326 327 328 328 328 329 330 327 324 322 321
271 271 271 271 271 272 273 273 274 274 275 275 276 278 279 279 279 278 277 276 276 276 278 279 280 279 277 275 274 273 272 271 271 272 274 275 275 274 272 270 271 275 280 284 289 295 301 306 310 313 316 318 319 318 317 316 313 311 310 310 311 313 314 314 314 315 316 317 318 319 321 323 325 327 327 327 328 328 329 329 328 326 324 322 321
270 270 270 270 271 272 273 274 274 274 275 276 277 277 278 277 276 275 275 275 275 276 279 280 280 279 278 276 276 275 274 273 273 273 273 272 271 270 268 269 274 281 283 285 290 296 301 306 310 313 316 318 319 318 317 314 311 309 308 308 310 312 313 313 315 315 317 318 319 320 322 323 325 328 327 327 328 329 330 330 328 325 324 324 322
270 270 270 270 270 271 271 272 273 273 274 274 275 275 275 275 275 274 274 274 275 277 279 280 279 277 276 277 278 277 275 274 273 271 271 271 269 267 268 272 278 282 283 287 292 296 301 306 311 313 315 317 318 317 315 312 310 308 306 306 309 310 311 313 314 316 317 318 319 321 322 323 326 329 328 327 329 331 332 331 328 327 327 327 325
274 274 274 274 272 272 271 271 271 272 273 273 274 275 275 275 275 274 274 275 276 278 279 279 279 277 277 278 277 275 274 273 272 271 271 271 269 268 270 273 276 279 283 287 292 296 303 309 312 313 315 316 316 316 314 311 308 306 305 305 307 308 310 311 312 314 316 317 319 321 322 323 327 329 328 328 330 333 333 332 330 328 328 328 327
277 277 277 275 274 273 272 272 272 272 273 274 274 275 276 276 275 275 276 276 277 278 278 279 278 277 278 278 276 274 273 272 272 274 274 273 272 271 271 272 274 277 281 286 291 298 304 309 311 313 315 315 315 315 312 310 307 305 303 304 305 307 309 309 311 314 316 317 319 321 322 324 328 329 328 329 333 334 333 332 331 329 328 327 327
279 278 277 275 274 273 273 272 272 272 273 274 275 275 275 275 276 276 276 276 277 277 278 278 278 278 278 277 274 273 273 272 272 273 273 272 271 271 272 273 275 278 281 287 293 299 304 308 311 313 313 314 314 313 310 307 305 303 302 302 304 307 308 309 311 315 316 316 319 321 323 326 329 327 327 331 335 335 332 331 330 331 330 329 328
279 278 276 275 274 273 272 272 273 274 275 274 274 274 275 275 275 276 276 276 277 278 278 277 277 278 277 274 273 272 272 272 272 272 271 270 271 271 272 274 276 279 283 288 293 299 303 306 309 311 312 313 313 310 308 306 304 301 301 301 303 305 307 308 311 314 314 316 319 321 324 328 328 326 328 334 337 335 332 331 332 333 332 331 331
279 277 276 275 273 272 272 273 275 275 274 274 274 274 275 275 275 275 275 275 276 277 277 277 277 278 276 275 273 271 270 271 272 271 271 271 271 271 272 275 277 281 285 289 294 299 302 305 307 309 310 311 310 308 305 304 302 300 299 299 301 304 305 307 310 312 313 315 318 321 324 327 327 327 331 336 336 333 332 333 335 335 334 333 333
280 278 276 274 273 272 272 273 274 274 274 275 275 275 275 275 274 274 274 274 275 275 276 277 279 279 278 275 272 270 269 269 271 272 272 272 271 272 274 276 278 282 285 289 294 298 301 303 306 308 309 309 308 305 303 302 300 299 297 298 300 302 304 306 309 311 312 315 318 321 324 326 326 329 334 337 334 332 333 335 336 336 334 335 335
282 280 278 275 273 272 272 273 274 275 276 276 276 275 275 275 275 275 275 275 276 277 278 279 280 279 278 275 272 269 268 269 271 272 272 272 272 273 275 277 279 282 286 290 295 298 300 303 305 307 307 307 305 303 301 300 298 297 296 296 298 300 303 305 307 309 311 314 317 320 323 325 327 331 335 336 333 331 334 336 337 336 336 336 336
284 281 279 277 275 274 274 274 275 276 276 277 276 276 276 276 276 276 276 277 278 278 278 279 278 278 276 274 272 270 271 271 272 273 273 274 274 275 276 278 281 284 288 292 295 297 300 303 304 305 305 305 303 301 300 298 296 294 293 295 297 300 303 304 304 305 309 312 316 319 322 324 328 332 334 333 332 331 333 335 336 337 337 337 336
285 282 280 278 276 276 276 276 276 277 278 278 279 279 278 278 278 277 276 277 278 278 278 278 277 276 276 274 273 272 272 273 275 276 276 276 277 278 279 282 284 287 290 292 295 298 301 302 303 304 304 303 301 300 299 297 294 292 292 292 295 298 301 301 300 302 306 310 314 318 321 323 327 331 332 331 330 330 332 335 337 338 337 337 337
289 285 281 279 278 277 277 278 279 280 281 281 281 282 281 281 280 279 278 278 278 278 278 277 277 276 276 275 274 274 274 275 276 277 278 279 280 282 284 286 288 290 291 294 296 299 301 301 302 302 301 300 299 299 298 296 293 291 290 291 292 295 297 298 298 299 303 308 312 316 319 322 325 328 329 329 329 329 332 335 337 337 337 338 338
294 290 286 283 281 280 280 281 282 283 283 283 282 282 281 281 279 279 278 279 278 277 278 278 277 277 277 276 275 275 275 275 276 278 279 281 284 285 287 288 290 291 293 295 297 299 299 300 300 300 299 299 299 298 297 296 293 291 290 290 291 292 294 295 295 297 301 306 310 313 317 320 323 325 327 328 328 329 332 334 336 337 338 339 339
297 294 291 289 286 285 285 285 284 284 284 283 282 282 281 280 279 279 280 281 280 279 279 278 278 278 277 276 276 276 275 276 279 280 282 285 287 288 289 290 291 293 294 296 297 298 299 299 299 298 298 298 299 298 298 296 294 292 291 290 290 291 292 292 293 295 298 302 306 310 315 318 320 322 325 327 327 328 331 333 335 337 338 338 339
300 297 295 293 291 291 289 288 287 287 285 284 284 283 282 281 280 280 280 280 279 279 280 280 279 279 277 276 276 276 277 279 282 284 285 287 289 289 290 291 292 294 296 297 298 299 298 297 297 298 298 299 299 299 298 297 295 293 292 291 290 290 290 289 289 291 294 298 303 309 314 317 318 320 324 325 325 327 330 332 334 337 338 337 338
302 300 298 297 296 295 294 291 290 289 287 286 285 283 282 281 281 280 279 278 278 279 280 280 280 279 279 279 280 281 282 284 285 286 288 289 290 290 291 292 294 295 297 297 298 298 296 295 296 298 299 299 300 299 299 298 297 295 294 292 291 289 287 286 286 288 290 295 301 309 314 315 316 319 323 325 325 326 329 331 334 336 337 337 338